Date,TemperatureHighF,TemperatureAvgF,TemperatureLowF,DewpointHighF,DewpointAvgF,DewpointLowF,HumidityHigh,HumidityAvg,HumidityLow,PressureMaxIn,PressureMinIn,WindSpeedMaxMPH,WindSpeedAvgMPH,GustSpeedMaxMPH,PrecipitationSumIn
2013-2-1,37.1,22.1,13.5,30.8,13.7,5.5,94,71,46,30.42,30.08,46,11,46,0.00
2013-2-2,32.4,27.5,19.0,30.6,21.7,7.1,93,79,40,30.38,30.13,31,8,31,0.02
2013-2-3,42.6,33.9,27.7,31.5,28.1,23.8,93,80,55,30.16,30.03,41,14,41,0.03
2013-2-4,45.9,37.5,26.1,31.2,25.2,6.1,88,62,34,30.14,29.97,18,4,18,0.00
2013-2-5,54.4,45.2,38.0,42.6,38.4,29.5,96,78,55,30.05,29.94,24,9,24,0.01
2013-2-6,58.4,48.1,41.6,39.1,31.8,26.8,75,54,35,30.19,30.05,19,4,19,0.00
2013-2-7,49.6,46.2,43.1,43.3,36.4,28.7,96,71,49,30.11,29.92,13,2,13,0.01
2013-2-8,44.3,39.0,29.9,43.5,37.0,27.6,97,93,81,30.23,29.88,34,10,34,0.09
2013-2-9,52.9,38.3,26.0,28.0,25.4,19.9,94,64,31,30.35,30.22,16,4,16,0.00
2013-2-10,49.3,45.3,41.5,48.5,36.5,27.1,97,74,45,30.25,29.93,29,6,29,0.43
2013-2-11,51.0,47.2,40.4,50.5,39.2,27.5,98,76,46,30.12,29.98,23,8,23,0.01
2013-2-12,46.9,41.3,37.6,35.5,29.8,21.6,89,65,41,30.15,29.80,18,5,18,0.05
2013-2-13,41.7,36.4,32.7,40.8,35.3,30.9,97,96,89,30.01,29.68,37,9,37,0.09
2013-2-14,49.4,40.0,30.7,36.5,32.6,28.1,93,76,56,30.10,30.00,21,7,21,0.00
2013-2-15,48.1,40.3,30.9,39.5,32.8,25.1,83,75,63,30.08,30.01,31,10,31,0.00
2013-2-16,30.8,25.2,20.4,25.2,17.6,9.3,89,73,53,30.18,30.01,41,13,41,0.00
2013-2-17,38.3,28.7,20.0,17.8,13.2,8.2,66,53,36,30.32,30.18,27,9,27,0.00
2013-2-18,53.2,42.3,32.2,33.6,24.3,15.9,84,49,40,30.31,29.94,24,5,24,0.03
2013-2-19,44.4,37.8,29.9,39.9,26.3,7.9,97,68,28,30.18,29.91,47,14,47,0.39
2013-2-20,32.3,27.7,21.3,18.1,15.5,11.6,78,60,44,30.26,30.15,27,8,27,0.00
2013-2-21,50.1,33.6,25.6,28.5,16.6,13.4,65,52,25,30.24,29.99,17,5,17,0.01
2013-2-26,41.9,37.7,32.8,41.0,35.8,31.8,97,93,82,29.73,29.47,29,8,29,0.45
2013-2-27,45.4,35.7,32.3,36.7,31.5,26.7,96,85,67,29.88,29.73,42,13,42,0.00
2013-2-28,32.4,30.2,28.5,28.3,26.0,23.8,91,84,78,30.03,29.83,39,14,39,0.00